Location: Conflandey
(47.7287°N, 6.0456°E)
Time: 03:54:08
(UTC+00:00)

SL-8 R/B - Pass Details

Date: 24 October 2021
Orbit: 656 x 667 km, 48.4° (Epoch: 05 December)

Event Time Altitude Azimuth Distance (km) Brightness Sun altitude
Rises 17:46:00 0° 260° (W) 2,980 9.0 -13.2°
Reaches altitude 10° 17:48:20 10° 261° (W) 2,071 7.7 -13.6°
Maximum altitude 17:53:07 87° 349° (N) 666 3.7 -14.4°
Enters shadow 17:56:01 24° 80° (E) 1,358 4.7 -14.9°
